TimeCST,TemperatureF,Dew PointF,Humidity,Sea Level PressureIn,VisibilityMPH,Wind Direction,Wind SpeedMPH,Gust SpeedMPH,PrecipitationIn,Events,Conditions,WindDirDegrees,DateUTC
12:14 AM,19.4,15.8,86,29.81,10.0,WNW,10.4,-,N/A,,Overcast,290,2012-11-25 06:14:00
12:34 AM,19.4,15.8,86,29.82,10.0,WNW,10.4,-,N/A,,Overcast,300,2012-11-25 06:34:00
12:54 AM,19.4,15.8,86,29.82,10.0,WNW,8.1,-,N/A,,Overcast,290,2012-11-25 06:54:00
1:14 AM,19.4,14.0,80,29.82,10.0,WNW,9.2,-,N/A,,Overcast,300,2012-11-25 07:14:00
1:34 AM,19.4,14.0,80,29.82,10.0,WNW,8.1,-,N/A,,Overcast,300,2012-11-25 07:34:00
1:54 AM,17.6,12.2,79,29.83,10.0,WNW,9.2,-,N/A,,Scattered Clouds,300,2012-11-25 07:54:00
2:14 AM,17.6,10.4,73,29.83,10.0,WNW,9.2,19.6,N/A,,Clear,300,2012-11-25 08:14:00
2:34 AM,15.8,10.4,79,29.84,10.0,West,5.8,-,N/A,,Scattered Clouds,270,2012-11-25 08:34:00
2:54 AM,15.8,10.4,79,29.85,10.0,West,5.8,-,N/A,,Mostly Cloudy,260,2012-11-25 08:54:00
3:14 AM,15.8,10.4,79,29.85,10.0,West,5.8,-,N/A,,Overcast,270,2012-11-25 09:14:00
3:34 AM,15.8,10.4,79,29.84,10.0,Calm,Calm,-,N/A,,Overcast,0,2012-11-25 09:34:00
3:54 AM,15.8,12.2,86,29.84,10.0,SW,4.6,-,N/A,,Overcast,230,2012-11-25 09:54:00
4:14 AM,15.8,12.2,86,29.84,10.0,West,6.9,-,N/A,,Overcast,260,2012-11-25 10:14:00
4:34 AM,17.6,12.2,79,29.83,10.0,West,5.8,-,N/A,,Overcast,260,2012-11-25 10:34:00
4:54 AM,17.6,12.2,79,29.85,10.0,West,6.9,-,N/A,,Overcast,260,2012-11-25 10:54:00
5:14 AM,17.6,12.2,79,29.85,4.0,West,5.8,-,N/A,Snow,Light Snow,270,2012-11-25 11:14:00
5:34 AM,17.6,12.2,79,29.85,3.0,West,4.6,-,N/A,Snow,Light Snow,260,2012-11-25 11:34:00
5:54 AM,17.6,12.2,79,29.85,3.0,WSW,3.5,-,N/A,Snow,Light Snow,240,2012-11-25 11:54:00
6:14 AM,17.6,12.2,79,29.85,1.8,SW,3.5,-,N/A,Snow,Light Snow,220,2012-11-25 12:14:00
6:34 AM,17.6,14.0,86,29.85,2.0,Calm,Calm,-,N/A,Snow,Light Snow,0,2012-11-25 12:34:00
6:54 AM,17.6,14.0,86,29.85,2.0,Calm,Calm,-,N/A,Snow,Light Snow,0,2012-11-25 12:54:00
7:14 AM,17.6,14.0,86,29.85,1.8,Calm,Calm,-,N/A,Snow,Light Snow,0,2012-11-25 13:14:00
7:34 AM,17.6,14.0,86,29.85,1.2,Calm,Calm,-,N/A,Snow,Light Snow,0,2012-11-25 13:34:00
7:54 AM,17.6,14.0,86,29.86,2.0,Calm,Calm,-,0.01,Snow,Light Snow,0,2012-11-25 13:54:00
8:14 AM,17.6,14.0,86,29.86,1.0,Calm,Calm,-,N/A,Snow,Light Snow,0,2012-11-25 14:14:00
8:34 AM,17.6,14.0,86,29.86,3.0,WSW,3.5,-,N/A,Snow,Light Snow,240,2012-11-25 14:34:00
8:54 AM,19.4,15.8,86,29.86,4.0,West,4.6,-,N/A,Snow,Light Snow,260,2012-11-25 14:54:00
9:14 AM,19.4,15.8,86,29.86,2.5,West,5.8,-,N/A,Snow,Light Snow,270,2012-11-25 15:14:00
9:33 AM,19.4,15.8,86,29.87,5.0,West,10.4,-,N/A,Snow,Light Snow,280,2012-11-25 15:33:00
9:54 AM,21.2,17.6,86,29.88,5.0,WNW,13.8,17.3,N/A,Snow,Light Snow,290,2012-11-25 15:54:00
10:14 AM,21.2,17.6,86,29.88,2.5,WNW,9.2,-,N/A,Snow,Light Snow,300,2012-11-25 16:14:00
10:33 AM,19.4,15.8,86,29.89,2.5,NW,19.6,25.3,N/A,Snow,Light Snow,310,2012-11-25 16:33:00
10:54 AM,17.6,12.2,79,29.90,5.0,WNW,13.8,23.0,N/A,Snow,Light Snow,300,2012-11-25 16:54:00
11:14 AM,17.6,12.2,79,29.91,10.0,WNW,13.8,20.7,N/A,,Overcast,300,2012-11-25 17:14:00
11:33 AM,17.6,8.6,68,29.92,2.0,WNW,19.6,25.3,N/A,Snow,Light Snow,300,2012-11-25 17:33:00
11:54 AM,17.6,8.6,68,29.92,7.0,NW,17.3,23.0,N/A,,Mostly Cloudy,310,2012-11-25 17:54:00
12:14 PM,15.8,8.6,73,29.92,1.8,NW,21.9,27.6,N/A,Snow,Light Snow,310,2012-11-25 18:14:00
12:33 PM,15.8,6.8,68,29.93,7.0,NW,17.3,23.0,N/A,,Mostly Cloudy,310,2012-11-25 18:33:00
12:54 PM,15.8,6.8,68,29.94,2.0,NW,18.4,28.8,N/A,,Haze,310,2012-11-25 18:54:00
1:14 PM,14.0,6.8,73,29.95,5.0,NW,18.4,26.5,N/A,,Haze,310,2012-11-25 19:14:00
1:33 PM,15.8,6.8,68,29.96,5.0,NW,19.6,25.3,N/A,,Haze,310,2012-11-25 19:33:00
1:54 PM,14.0,6.8,73,29.96,7.0,NW,18.4,25.3,N/A,,Overcast,310,2012-11-25 19:54:00
2:14 PM,14.0,6.8,73,29.97,5.0,NW,17.3,24.2,N/A,,Haze,310,2012-11-25 20:14:00
2:34 PM,14.0,5.0,67,29.98,7.0,NW,17.3,23.0,N/A,Snow,Light Snow,310,2012-11-25 20:34:00
2:54 PM,12.2,3.2,67,29.99,3.0,NW,18.4,26.5,N/A,,Haze,310,2012-11-25 20:54:00
3:14 PM,12.2,3.2,67,29.99,10.0,WNW,11.5,21.9,N/A,,Clear,300,2012-11-25 21:14:00
3:34 PM,12.2,3.2,67,30.01,10.0,NW,16.1,21.9,N/A,,Clear,310,2012-11-25 21:34:00
3:54 PM,12.2,3.2,67,30.02,10.0,NW,12.7,-,N/A,,Clear,310,2012-11-25 21:54:00
4:14 PM,10.4,1.4,67,30.02,10.0,NW,11.5,19.6,N/A,,Clear,310,2012-11-25 22:14:00
4:34 PM,10.4,1.4,67,30.04,10.0,WNW,9.2,-,N/A,,Clear,300,2012-11-25 22:34:00
4:54 PM,8.6,1.4,73,30.04,10.0,WNW,9.2,-,N/A,,Clear,300,2012-11-25 22:54:00
5:13 PM,8.6,1.4,73,30.06,10.0,WNW,5.8,-,N/A,,Clear,300,2012-11-25 23:13:00
5:34 PM,6.8,1.4,79,30.06,10.0,NW,8.1,-,N/A,,Clear,310,2012-11-25 23:34:00
5:54 PM,6.8,-0.4,72,30.07,10.0,NW,8.1,-,N/A,,Clear,320,2012-11-25 23:54:00
6:13 PM,5.0,-0.4,78,30.08,10.0,WNW,6.9,-,N/A,,Clear,300,2012-11-26 00:13:00
6:34 PM,5.0,-0.4,78,30.09,10.0,WNW,6.9,-,N/A,,Clear,290,2012-11-26 00:34:00
6:54 PM,3.2,-0.4,85,30.11,10.0,West,5.8,-,N/A,,Clear,270,2012-11-26 00:54:00
7:13 PM,3.2,-0.4,85,30.12,10.0,West,6.9,-,N/A,,Clear,280,2012-11-26 01:13:00
7:34 PM,3.2,-2.2,78,30.13,10.0,West,6.9,-,N/A,,Clear,280,2012-11-26 01:34:00
7:54 PM,3.2,-2.2,78,30.14,10.0,WNW,8.1,-,N/A,,Clear,290,2012-11-26 01:54:00
8:13 PM,3.2,-2.2,78,30.15,10.0,West,5.8,-,N/A,,Clear,280,2012-11-26 02:13:00
8:34 PM,3.2,-2.2,78,30.15,10.0,West,6.9,-,N/A,,Clear,280,2012-11-26 02:34:00
8:54 PM,3.2,-2.2,78,30.16,10.0,WNW,6.9,-,N/A,,Clear,290,2012-11-26 02:54:00
9:13 PM,1.4,-2.2,85,30.16,10.0,WNW,5.8,-,N/A,,Clear,300,2012-11-26 03:13:00
9:34 PM,1.4,-2.2,85,30.17,10.0,WNW,5.8,-,N/A,,Clear,290,2012-11-26 03:34:00
9:54 PM,1.4,-2.2,85,30.18,10.0,WNW,5.8,-,N/A,,Clear,290,2012-11-26 03:54:00
10:13 PM,1.4,-2.2,85,30.18,10.0,WNW,6.9,-,N/A,,Clear,290,2012-11-26 04:13:00
10:34 PM,1.4,-4.0,78,30.19,10.0,WNW,8.1,-,N/A,,Clear,290,2012-11-26 04:34:00
10:54 PM,1.4,-4.0,78,30.20,10.0,West,6.9,-,N/A,,Clear,280,2012-11-26 04:54:00
11:14 PM,-0.4,-4.0,85,30.20,10.0,WNW,5.8,-,N/A,,Clear,290,2012-11-26 05:14:00
11:34 PM,-0.4,-4.0,85,30.21,10.0,WNW,6.9,-,N/A,,Clear,290,2012-11-26 05:34:00
11:54 PM,-0.4,-4.0,85,30.22,10.0,West,6.9,-,N/A,,Clear,280,2012-11-26 05:54:00